This demonstration page uses our WeatherBlox Daily Observations layout. Learn more.

Left ArrowRight Arrow

Hourly Observations for September 2, 2022

Temp ( °F °C ) Dew Point ( °F °C ) Humidity (%) Winds ( mph kmh ) Pressure ( in mb ) Visibility ( mi km ) Precip ( " mm )
12:53 am 00:53 Mostly Cloudy 76 24.4 63 17.2 64 64 ENE 3 6 29.94 1014 10 16 0.00 0.00
1:53 am 01:53 Cloudy 76 24.4 65 18.3 69 69 NE 3 6 29.93 1014 10 16 0.00 0.00
2:53 am 02:53 Clear 75 23.9 67 19.4 76 76 E 3 6 29.92 1013 10 16 0.00 0.00
3:53 am 03:53 Clear 73 22.8 66 18.9 79 79 ENE 3 6 29.92 1013 10 16 0.00 0.00
4:53 am 04:53 Clear 73 22.8 66 18.9 79 79 ENE 6 9 29.93 1014 10 16 0.00 0.00
5:53 am 05:53 Mostly Clear 73 22.8 65 18.3 76 76 E 5 7 29.95 1014 10 16 0.00 0.00
6:53 am 06:53 Sunny 76 24.4 66 18.9 71 71 E 8 13 29.96 1014 10 16 0.00 0.00
7:53 am 07:53 Sunny 79 26.1 68 20 69 69 ESE 6 9 29.96 1015 10 16 0.00 0.00
8:53 am 08:53 Sunny 80 26.7 69 20.6 69 69 S 8 13 29.97 1015 10 16 0.00 0.00
9:53 am 09:53 Mostly Sunny 82 27.8 68 20 63 63 SSW 9 15 29.97 1015 10 16 0.00 0.00
10:53 am 10:53 Mostly Sunny 82 27.8 69 20.6 65 65 WSW 9 15 29.96 1015 10 16 0.00 0.00
11:53 am 11:53 Partly Cloudy 83 28.3 69 20.6 63 63 W 9 15 29.95 1014 10 16 0.00 0.00
12:53 pm 12:53 Partly Cloudy 84 28.9 68 20 59 59 W 10 17 29.94 1014 10 16 0.00 0.00
1:53 pm 13:53 Partly Cloudy 82 27.8 69 20.6 65 65 W 8 13 29.93 1013 10 16 0.00 0.00
2:53 pm 14:53 Sunny 82 27.8 69 20.6 65 65 W 7 11 29.91 1013 10 16 0.00 0.00
3:53 pm 15:53 Sunny 82 27.8 70 21.1 67 67 W 7 11 29.90 1013 10 16 0.00 0.00
4:53 pm 16:53 Mostly Sunny 85 29.4 71 21.7 63 63 NNW 12 19 29.90 1013 10 16 0.00 0.00
5:53 pm 17:53 Sunny 83 28.3 70 21.1 65 65 NNW 12 19 29.91 1013 10 16 0.00 0.00
6:53 pm 18:53 Clear 81 27.2 71 21.7 72 72 NNW 6 9 29.93 1013 10 16 0.00 0.00
7:53 pm 19:53 Clear 79 26.1 69 20.6 72 72 SSE 13 20 29.95 1014 10 16 0.00 0.00
8:53 pm 20:53 Clear 78 25.6 69 20.6 74 74 SE 10 17 29.96 1015 10 16 0.00 0.00
9:53 pm 21:53 Clear 77 25 70 21.1 79 79 SE 9 15 29.98 1015 10 16 0.00 0.00
10:53 pm 22:53 Clear 77 25 70 21.1 79 79 SE 9 15 29.98 1015 10 16 0.00 0.00
11:53 pm 23:53 Clear 76 24.4 69 20.6 79 79 SE 9 15 29.96 1015 10 16 0.00 0.00

Powered by AerisWeather